Starlink 5389

operational
NORAD ID: 54835 Int'l Des: 2022-177 Owner: SPXS Country: US Constellation: starlink
LEOCIRCULAR

关于 Starlink 5389

正在加载描述...

实时位置

正在加载3D地球...

即将过境

高度历史

Altitude vs Time

uPlot chart will show altitude changes over time

两行轨道根数

1 54835U 22177R 25350.37403448 .00003228 00000-0 25407-3 0 9998
2 54835 43.0029 225.9495 0001021 273.9838 86.0887 15.02515383164422
Epoch: Dec 16, 2025 • Age: 26 hours

当前状态

高度 561.2 km
速度 7.58 km/s
星下点 -12.20°S, 156.24°E
发射日期 Dec 28, 2022
运行时间 2.9 years
类型 internet

技术详情

分类 Payload
质量 305.00 kg
干质量 290.00 kg
总质量 305.00 kg
长度 0.20 m
直径 2.80 m
跨度 9.00 m
形状 Box + pan
制造商 SPXS
平台类型 Starlink
阶段状态 In Orbit
所有者/国家 SPXS/US

大型星座

Loading constellations...